NS0O Weather Reports


time (UTC)temp
F
wind
direction
speed
knots
gust
knots
rain 1hr
in
rain 24hr
in
rain mn
in
humidity
%
barometer
mb
20260504100504 54 310 1.7 1.7 0.00 0.00 0.00 44 1001.0
20260504082004 52 310 1.7 1.7 0.00 0.00 0.00 48 1002.0
20260504081503 52 310 1.7 1.7 0.00 0.00 0.00 48 1002.0
20260504080504 52 310 1.7 1.7 0.00 0.00 0.00 48 1002.0
20260504050504 52 310 1.7 1.7 0.00 0.00 0.00 44 1004.7
20260504050003 50 310 1.7 1.7 0.00 0.00 0.00 51 1005.4
20260504045504 50 310 1.7 1.7 0.00 0.00 0.00 51 1005.4
20260504045004 50 310 1.7 1.7 0.00 0.00 0.00 51 1005.4
20260504044504 50 310 1.7 1.7 0.00 0.00 0.00 51 1005.4
20260504044004 50 310 1.7 1.7 0.00 0.00 0.00 51 1005.4
20260504043003 50 310 1.7 1.7 0.00 0.00 0.00 51 1005.4
20260504042004 50 310 1.7 1.7 0.00 0.00 0.00 51 1005.4
20260504041504 50 310 1.7 1.7 0.00 0.00 0.00 51 1005.4
20260504041004 50 310 1.7 1.7 0.00 0.00 0.00 51 1005.4
20260504040503 50 310 1.7 1.7 0.00 0.00 0.00 51 1005.4
20260504040004 52 310 1.7 1.7 0.00 0.00 0.00 46 1005.8
20260504035503 52 310 1.7 1.7 0.00 0.00 0.00 46 1005.8
20260504035004 52 310 1.7 1.7 0.00 0.00 0.00 46 1005.8
20260504034504 52 310 1.7 1.7 0.00 0.00 0.00 46 1005.8
20260504034004 52 310 1.7 1.7 0.00 0.00 0.00 46 1005.8
20260504033504 52 310 1.7 1.7 0.00 0.00 0.00 46 1005.8
20260504033003 52 310 1.7 1.7 0.00 0.00 0.00 46 1005.8
20260504032504 52 310 1.7 1.7 0.00 0.00 0.00 46 1005.8
20260504032003 52 310 1.7 1.7 0.00 0.00 0.00 46 1005.8
20260504031503 52 310 1.7 1.7 0.00 0.00 0.00 46 1005.8
20260504031004 52 310 1.7 1.7 0.00 0.00 0.00 46 1005.8
20260504030503 52 310 1.7 1.7 0.00 0.00 0.00 46 1005.8
20260504030004 61 310 1.7 1.7 0.00 0.00 0.00 30 1006.1
20260504024004 61 310 1.7 1.7 0.00 0.00 0.00 30 1006.1
20260504023504 61 310 1.7 1.7 0.00 0.00 0.00 30 1006.1
20260504023004 61 310 1.7 1.7 0.00 0.00 0.00 30 1006.1
20260504022503 61 310 1.7 1.7 0.00 0.00 0.00 30 1006.1
20260504022004 61 310 1.7 1.7 0.00 0.00 0.00 30 1006.1
20260504021503 61 310 1.7 1.7 0.00 0.00 0.00 30 1006.1
20260504021004 61 310 1.7 1.7 0.00 0.00 0.00 30 1006.1
20260504020503 61 310 1.7 1.7 0.00 0.00 0.00 30 1006.1
20260504020004 62 310 1.7 1.7 0.00 0.00 0.00 32 1006.1
20260504015504 62 310 1.7 1.7 0.00 0.00 0.00 32 1006.1
20260504015004 62 310 1.7 1.7 0.00 0.00 0.00 32 1006.1
20260504014503 62 310 1.7 1.7 0.00 0.00 0.00 32 1006.1
20260504014004 62 310 1.7 1.7 0.00 0.00 0.00 32 1006.1
20260504013503 62 310 1.7 1.7 0.00 0.00 0.00 32 1006.1
20260504013004 62 310 1.7 1.7 0.00 0.00 0.00 32 1006.1
20260504012503 62 310 1.7 1.7 0.00 0.00 0.00 32 1006.1
20260504012004 62 310 1.7 1.7 0.00 0.00 0.00 32 1006.1
20260504011504 62 310 1.7 1.7 0.00 0.00 0.00 32 1006.1
20260504011004 62 310 1.7 1.7 0.00 0.00 0.00 32 1006.1
20260504010503 62 310 1.7 1.7 0.00 0.00 0.00 32 1006.1
20260504010004 68 310 1.7 1.7 0.00 0.00 0.00 25 1006.1
20260504005504 68 310 1.7 1.7 0.00 0.00 0.00 25 1006.1
20260504005004 68 310 1.7 1.7 0.00 0.00 0.00 25 1006.1
20260504004504 68 310 1.7 1.7 0.00 0.00 0.00 25 1006.1
20260504004003 68 310 1.7 1.7 0.00 0.00 0.00 25 1006.1
20260504003004 68 310 1.7 1.7 0.00 0.00 0.00 25 1006.1
20260504002504 68 310 1.7 1.7 0.00 0.00 0.00 25 1006.1
20260504001504 68 310 1.7 1.7 0.00 0.00 0.00 25 1006.1
20260504001003 68 310 1.7 1.7 0.00 0.00 0.00 25 1006.1
20260504000003 70 310 1.7 1.7 0.00 0.00 0.00 24 1006.4
20260503235503 70 310 1.7 1.7 0.00 0.00 0.00 24 1006.4
20260503235004 70 310 1.7 1.7 0.00 0.00 0.00 24 1006.4
20260503234504 70 310 1.7 1.7 0.00 0.00 0.00 24 1006.4
20260503233503 70 310 1.7 1.7 0.00 0.00 0.00 24 1006.4
20260503233004 70 310 1.7 1.7 0.00 0.00 0.00 24 1006.4
20260503232503 70 310 1.7 1.7 0.00 0.00 0.00 24 1006.4
20260503232003 70 310 1.7 1.7 0.00 0.00 0.00 24 1006.4
20260503231504 70 310 1.7 1.7 0.00 0.00 0.00 24 1006.4
20260503231004 70 310 1.7 1.7 0.00 0.00 0.00 24 1006.4
20260503230503 70 310 1.7 1.7 0.00 0.00 0.00 24 1006.4
20260503230004 71 310 1.7 1.7 0.00 0.00 0.00 24 1006.4
20260503225504 71 310 1.7 1.7 0.00 0.00 0.00 24 1006.4
20260503225004 71 310 1.7 1.7 0.00 0.00 0.00 24 1006.4
20260503224003 71 310 1.7 1.7 0.00 0.00 0.00 24 1006.4
20260503223004 71 310 1.7 1.7 0.00 0.00 0.00 24 1006.4
20260503222504 71 310 1.7 1.7 0.00 0.00 0.00 24 1006.4
20260503221503 71 310 1.7 1.7 0.00 0.00 0.00 24 1006.4
20260503221004 71 310 1.7 1.7 0.00 0.00 0.00 24 1006.4
20260503220504 71 310 1.7 1.7 0.00 0.00 0.00 24 1006.4
20260503220004 72 310 1.7 1.7 0.00 0.00 0.00 22 1006.8
20260503215004 72 310 1.7 1.7 0.00 0.00 0.00 22 1006.8
20260503214003 72 310 1.7 1.7 0.00 0.00 0.00 22 1006.8
20260503213004 72 310 1.7 1.7 0.00 0.00 0.00 22 1006.8
20260503212504 72 310 1.7 1.7 0.00 0.00 0.00 22 1006.8
20260503212004 72 310 1.7 1.7 0.00 0.00 0.00 22 1006.8
20260503211004 72 310 1.7 1.7 0.00 0.00 0.00 22 1006.8
20260503210504 72 310 1.7 1.7 0.00 0.00 0.00 22 1006.8
20260503210003 72 310 1.7 1.7 0.00 0.00 0.00 24 1007.1
20260503205504 72 310 1.7 1.7 0.00 0.00 0.00 24 1007.1
20260503205004 72 310 1.7 1.7 0.00 0.00 0.00 24 1007.1
20260503204504 72 310 1.7 1.7 0.00 0.00 0.00 24 1007.1
20260503204003 72 310 1.7 1.7 0.00 0.00 0.00 24 1007.1
20260503203504 72 310 1.7 1.7 0.00 0.00 0.00 24 1007.1
20260503202503 72 310 1.7 1.7 0.00 0.00 0.00 24 1007.1
20260503202004 72 310 1.7 1.7 0.00 0.00 0.00 24 1007.1
20260503201004 72 310 1.7 1.7 0.00 0.00 0.00 24 1007.1
20260503195504 71 310 1.7 1.7 0.00 0.00 0.00 25 1007.1
20260503195004 71 310 1.7 1.7 0.00 0.00 0.00 25 1007.1
20260503194503 71 310 1.7 1.7 0.00 0.00 0.00 25 1007.1
20260503194004 71 310 1.7 1.7 0.00 0.00 0.00 25 1007.1
20260503192504 71 310 1.7 1.7 0.00 0.00 0.00 25 1007.1
20260503191003 71 310 1.7 1.7 0.00 0.00 0.00 25 1007.1
20260503190503 71 310 1.7 1.7 0.00 0.00 0.00 25 1007.1
20260503185004 69 310 1.7 1.7 0.00 0.00 0.00 29 1007.5
20260503184503 69 310 1.7 1.7 0.00 0.00 0.00 29 1007.5
20260503184004 69 310 1.7 1.7 0.00 0.00 0.00 29 1007.5
20260503183504 69 310 1.7 1.7 0.00 0.00 0.00 29 1007.5
20260503183004 69 310 1.7 1.7 0.00 0.00 0.00 29 1007.5
20260503182504 69 310 1.7 1.7 0.00 0.00 0.00 29 1007.5
20260503182005 69 310 1.7 1.7 0.00 0.00 0.00 29 1007.5
20260503181505 69 310 1.7 1.7 0.00 0.00 0.00 29 1007.5
20260503180503 69 310 1.7 1.7 0.00 0.00 0.00 29 1007.5
20260503180004 67 310 1.7 1.7 0.00 0.00 0.00 34 1007.8
20260503175504 67 310 1.7 1.7 0.00 0.00 0.00 34 1007.8
20260503175003 67 310 1.7 1.7 0.00 0.00 0.00 34 1007.8
20260503174004 67 310 1.7 1.7 0.00 0.00 0.00 34 1007.8
20260503173504 67 310 1.7 1.7 0.00 0.00 0.00 34 1007.8
20260503172504 67 310 1.7 1.7 0.00 0.00 0.00 34 1007.8
20260503172005 67 310 1.7 1.7 0.00 0.00 0.00 34 1007.8
20260503171004 67 310 1.7 1.7 0.00 0.00 0.00 34 1007.8
20260503170504 67 310 1.7 1.7 0.00 0.00 0.00 34 1007.8
20260503151003 60 310 1.7 1.7 0.00 0.00 0.00 42 1006.8
20260503150503 60 310 1.7 1.7 0.00 0.00 0.00 42 1006.8
20260503131003 53 310 1.7 1.7 0.00 0.00 0.00 48 1006.8
20260503130503 53 310 1.7 1.7 0.00 0.00 0.00 48 1006.8